Probability
0 0 0 0 0 0 0 0 0 0 0 0 0 0 0 0 0 0 0 0 0 0 0 0 0 0 0 0 0 0 0 0 0 0 0 0 0 0 0 0 0 0 0
0 0 0 0 0 0 0 0 0 0 0 0 0 0 0 0 0 0 0 0 0 0 0 0 0 0 0 0 0 0 0 0 0 0 0 0 0 0 0 0 0 0 0
0 0 0 0 0 0 0 0 0 0 0 0 0 0 0 0 0 0 0 0 0 0 0 0 0 0 0 0 0 0 0 0 0 0 0 0 0 0 0 0 0 0 0
0 0 0 0 0 0 0 0 0 0 0 0 0 0 0 0 0 0 0 0 0 0 0 0 0 0 0 0 0 0 0 0 0 0 0 0 0 0 0 0 0 0 0
0 0 0 0 0 0 0 0 0 0 0 0 0 0 0 0 0 0 0 0 0 0 0 0 0 0 0 0 0 0 0 0 0 0 0 0 0 0 0 0 0 0 0
0 0 0 0 0 0 0 0 0 0 0 0 0 0 0 0 0 0 0 0 0 0 0 0 0 0 0 0 0 0 0 0 0 0 0 0 0 0 0 0 0 0 0
0 0 0 0 0 0 0 0 0 0 0 0 0 0 0 0 0 0 0 0 0 0 0 0 0 0 0 0 0 0 0 0 0 0 0 0 0 0 0 0 0 0 0
0 0 0 0 0 0 0 0 0 0 0 0 0 0 0 0 0 0 0 0 0 0 0 0 0 0 0 0 0 0 0 0 0 0 0 0 0 0 0 0 0 0 0
0 0 0 0 0 0 0 0 0 0 0 0 0 0 0 0 0 0 0 0 0 0 0 0 0 0 0 0 0 0 0 0 0 0 0 0 0 0 0 0 0 0 0
0 0 0 0 0 0 0 0 0 0 0 0 0 0 0 0 0 0 0 0 0 0 0 0 0 0 0 0 0 0 0 0 0 0 0 0 0 0 0 0 0 0 0
0 0 0 0 0 0 0 0 0 0 0 0 0 0 0 0 0 0 0 0 0 0 0 0 0 0 0 0 0 0 0 0 0 0 0 0 0 0 0 0 0 0 0
0 0 0 0 0 0 0 0 0 0 0 0 0 0 0 0 0 0 0 0 0 0 0 0 0 0 0 0 0 0 0 0 0 0 0 0 0 0 0 0 0 0 0
0 0 0 0 0 0 0 0 0 0 0 0 0 0 0 0 0 0 0 0 0 0 0 0 0 0 0 0 0 0 0 0 0 0 0 0 0 0 0 0 0 0 0
0 0 0 0 0 0 0 0 0 0 0 0 0 0 0 0 0 0 0 0 0 0 0 0 0 0 0 0 0 0 0 0 0 0 0 0 0 0 0 0 0 0 0
0 0 0 0 0 0 0 0 0 0 0 0 0 0 0 0 0 0 0 0 0 0 0 0 0 0 0 0 0 0 0 0 0 0 0 0 0 0 0 0 0 0 0
0 0 0 0 0 0 0 0 0 0 0 0 0 0 0 0 0 0 0 0 0 0 0 0 0 0 0 0 0 0 0 0 0 0 0 0 0 0 0 0 0 0 0
0 0 0 0 0 0 0 0 0 0 0 0 0 0 0 0 0 0 0 0 0 0 0 0 0 0 0 0 0 0 0 0 0 0 0 0 0 0 0 0 0 0 0
0 0 0 0 0 0 0 0 0 0 0 0 0 0 0 0 0 0 0 0 0 0 0 0 0 0 0 0 0 0 0 0 0 0 0 0 0 0 0 0 0 0 0
0 0 0 0 0 0 0 0 0 0 0 0 0 0 0 0 0 0 0 0 0 0 0 0 0 0 0 0 0 0 0 0 0 0 0 0 0 0 0 0 0 0 0
0 0 0 0 0 0 0 0 0 0 0 0 0 0 0 0 0 0 0 0 0 0 0 0 0 0 0 0 0 0 0 0 0 0 0 0 0 0 0 0 0 0 0
0 0 0 0 0 0 0 0 0 0 0 0 0 0 0 0 0 0 0 0 0 0 0 0 0 0 0 0 0 0 0 0 0 0 0 0 0 0 0 0 0 0 0
0 0 0 0 0 0 0 0 0 0 0 0 0 0 0 0 0 0 0 0 0 0 0 0 0 0 0 0 0 0 0 0 0 0 0 0 0 0 0 0 0 0 0
0 0 0 0 0 0 0 0 0 0 0 0 0 0 0 0 0 0 0 0 0 0 0 0 0 0 0 0 0 0 0 0 0 0 0 0 0 0 0 0 0 0 0
0 0 0 0 0 0 0 0 0 0 0 0 0 0 0 0 0 0 0 0 0 0 0 0 0 0 0 0 0 0 0 0 0 0 0 0 0 0 0 0 0 0 0
0 0 0 0 0 0 0 0 0 0 0 0 0 0 0 0 0 0 0 0 0 0 0 0 0 0 0 0 0 0 0 0 0 0 0 0 0 0 0 0 0 0 0
0 0 0 0 0 0 0 0 0 0 0 0 0 0 0 0 0 0 0 0 0 0 0 0 0 0 0 0 0 0 0 0 0 0 0 0 0 0 0 0 0 0 0
Wind_Speed
6 5 5 4 4 2 2 2 2 2 2 2 2 2 2 2 2 2 2 2 3 3 3 4 4 3 3 2 2 2 2 1 0 1 2 2 3 4 3 4 4 4 5
6 5 5 5 4 2 3 3 3 2 2 2 2 2 3 2 2 2 3 3 4 4 4 4 4 3 4 3 3 3 2 2 1 1 2 2 3 2 2 3 3 3 3
6 6 5 4 4 3 3 3 3 3 2 2 2 3 3 2 3 3 4 4 5 5 5 4 4 4 4 3 4 3 2 2 2 2 2 1 1 1 2 2 2 2 2
6 5 5 4 4 4 4 3 3 2 2 2 3 3 3 3 3 3 4 5 5 5 5 5 5 5 4 3 3 3 2 2 2 2 1 0 0 0 1 2 2 2 2
6 6 5 5 5 4 4 3 3 2 2 3 3 3 3 3 2 3 3 5 5 5 5 5 5 6 7 5 4 3 3 2 2 1 1 0 0 1 2 2 2 2 2
7 6 6 6 5 4 4 4 3 3 2 2 2 3 3 3 4 4 4 4 4 5 4 3 4 5 6 7 8 7 6 4 2 1 1 1 1 2 2 2 2 2 2
7 7 7 6 6 5 4 4 4 3 3 3 2 3 5 5 6 6 7 5 5 4 3 2 2 3 4 2 3 5 5 6 5 2 2 2 2 2 2 2 2 1 2
7 7 7 7 6 6 5 5 4 3 3 3 2 4 5 5 6 7 8 5 4 3 2 2 2 2 2 3 2 2 2 2 3 3 3 2 3 2 2 1 1 2 3
8 8 8 8 7 7 6 5 4 4 3 3 3 3 4 5 6 6 5 3 3 2 2 1 2 2 3 3 2 1 1 1 2 2 1 1 2 3 2 2 2 2 2
8 8 7 7 8 7 7 5 4 4 4 4 3 3 4 3 6 6 5 2 2 2 2 2 2 2 1 1 1 1 1 1 1 0 1 2 1 1 1 1 1 1 0
7 7 7 7 7 7 6 5 5 5 5 4 4 3 4 5 7 8 7 2 2 2 2 2 2 4 1 2 1 1 1 1 1 1 2 1 1 1 1 2 2 2 2
7 7 7 7 6 6 7 6 6 6 5 5 4 4 4 5 7 8 9 7 4 2 2 2 3 5 3 3 2 3 3 1 1 2 2 1 1 1 1 1 0 1 2
7 7 7 7 6 7 7 8 7 6 5 5 4 4 4 4 6 11 11 10 8 4 3 4 4 5 4 3 5 5 3 1 1 2 2 2 2 2 1 1 2 3 4
7 7 7 7 7 7 6 6 6 6 6 5 5 5 4 4 4 4 4 5 7 5 3 5 6 6 5 5 5 3 2 3 2 2 2 1 1 1 2 2 2 2 3
7 7 7 7 7 7 6 6 7 7 7 7 5 5 5 5 8 11 7 5 5 5 4 2 2 2 3 3 3 4 3 3 3 2 2 2 2 2 2 2 2 2 2
6 7 6 6 5 5 5 5 9 9 12 13 10 8 7 8 9 12 14 12 12 11 6 3 4 4 4 4 4 4 3 4 3 3 3 3 2 2 3 2 2 3 4
7 7 6 6 6 6 6 6 5 7 12 13 14 13 11 10 10 10 11 12 12 11 6 4 5 5 4 4 4 4 4 4 3 4 4 3 3 3 3 3 3 3 4
7 8 7 6 6 6 6 6 5 5 6 6 11 17 17 15 14 12 12 10 7 8 5 6 6 5 5 5 4 4 4 4 4 4 4 4 4 4 4 4 4 5 5
7 6 6 6 6 6 6 6 6 6 6 5 4 7 15 16 16 15 13 7 7 7 7 6 6 6 5 5 5 5 5 4 4 4 4 5 4 4 4 5 5 9 7
6 8 8 6 6 6 6 6 7 7 7 6 7 6 5 7 7 8 9 7 8 7 7 7 6 6 6 5 5 5 5 5 5 5 5 5 5 5 5 6 6 6 6
4 6 10 7 6 6 6 7 7 7 7 7 7 7 10 7 8 8 8 8 9 8 7 7 6 6 6 5 5 6 7 6 5 5 5 5 5 5 5 5 6 6 6
4 4 5 6 6 6 6 6 6 7 7 8 6 6 13 9 7 7 8 8 8 7 6 6 6 6 6 6 6 6 6 6 6 6 5 5 5 5 5 6 6 6 6
4 4 4 5 5 7 7 6 6 7 7 7 6 5 6 7 7 8 7 6 5 5 5 5 6 5 5 6 6 7 7 7 6 6 6 6 5 5 6 6 7 8 8
4 4 4 4 4 5 5 5 6 6 6 6 6 6 6 6 7 7 6 5 5 5 5 5 6 7 9 7 5 6 6 6 6 6 8 6 6 6 6 7 7 9 9
3 3 4 4 4 4 4 4 5 5 5 5 5 5 5 5 5 5 5 5 6 6 7 7 6 7 9 10 8 7 10 14 11 6 6 6 7 7 7 8 8 9 9
3 3 3 3 3 3 4 4 4 4 4 4 4 4 4 5 5 4 4 5 5 5 6 6 7 8 8 8 10 12 14 15 15 14 8 6 8 8 8 8 10 10 11
Wind_Direction
134 129 123 113 108 105 108 100 87 77 61 50 52 44 40 23 22 71 74 69 88 86 74 75 70 62 66 48 38 40 36 31 199 96 87 62 56 40 18 12 19 23 22
138 131 124 120 124 127 115 98 86 83 74 62 59 72 63 38 31 70 84 74 84 91 86 84 78 74 67 51 51 51 42 32 41 92 78 55 52 33 17 19 20 24 22
137 136 136 142 145 139 120 106 99 96 94 84 77 86 79 59 53 65 85 81 76 73 71 73 70 78 72 59 56 48 34 39 41 71 75 63 53 17 10 7 13 18 17
147 149 150 149 141 125 115 110 109 114 120 113 99 92 89 76 68 73 90 94 89 79 70 66 61 65 68 63 62 40 30 43 53 73 89 93 115 328 33 12 360 6 4
153 157 154 138 123 117 122 123 117 111 106 102 107 110 110 99 85 92 105 111 108 97 83 76 73 75 72 67 66 42 32 41 48 50 52 25 22 47 32 13 4 341 353
162 163 147 137 135 140 144 140 137 131 119 113 119 123 110 98 106 108 111 104 104 104 99 90 88 71 75 72 68 61 54 56 48 32 357 41 51 52 37 25 19 14 340
166 159 151 151 153 155 155 151 151 149 145 143 139 122 109 115 124 115 105 102 101 105 108 101 99 90 69 62 65 65 60 57 53 52 55 48 66 54 53 23 21 4 279
167 161 158 157 158 158 162 163 158 153 155 149 138 121 123 132 129 121 114 105 111 116 112 106 104 107 82 63 60 55 46 65 58 61 72 57 67 55 48 21 323 326 301
172 167 163 160 162 165 170 166 156 150 145 134 122 118 126 139 144 142 130 129 140 152 149 109 87 108 101 63 50 359 316 200 133 114 85 2 0 2 6 34 18 27 339
175 165 159 161 166 170 170 163 153 150 149 140 136 137 145 160 175 174 169 168 168 177 180 174 147 133 119 48 23 352 357 28 58 346 293 279 265 273 356 105 131 129 300
155 152 155 161 165 165 162 160 157 155 154 158 166 182 190 200 198 198 199 190 185 176 175 183 183 175 207 271 294 292 260 17 350 316 294 265 230 196 119 98 109 143 176
147 152 157 161 163 163 161 164 165 164 169 178 186 200 209 208 204 209 213 215 207 174 186 184 179 181 224 260 269 260 266 314 319 298 285 266 218 168 135 107 89 223 214
153 160 164 167 167 167 171 173 174 177 182 190 194 202 205 198 207 217 217 217 219 198 193 191 190 210 240 267 264 258 260 249 262 266 261 246 204 182 171 258 276 262 258
168 171 171 174 175 176 179 179 182 186 190 194 197 202 202 196 198 201 208 219 223 219 211 224 230 238 237 247 259 258 230 223 225 233 251 239 192 184 213 225 246 278 292
177 177 177 180 180 185 189 193 192 195 196 196 200 194 193 206 212 203 191 196 192 198 185 185 193 211 221 228 227 225 220 226 235 224 235 244 243 238 239 225 222 236 256
187 185 184 184 185 186 187 201 211 207 213 214 206 199 208 211 210 210 208 208 207 208 199 196 211 216 220 222 219 216 214 215 214 210 213 222 236 243 252 252 236 237 255
199 192 186 187 190 191 192 197 207 219 224 227 225 224 221 217 217 213 213 213 215 215 214 211 218 221 220 215 211 211 217 217 207 203 207 215 223 232 240 249 252 254 258
205 199 193 193 195 198 201 203 202 201 210 225 229 230 229 227 224 220 217 211 219 219 213 217 220 219 214 211 211 213 216 215 207 207 210 215 217 224 235 243 246 250 259
209 205 201 198 197 199 198 201 207 211 217 218 208 224 227 228 226 224 217 211 212 217 218 219 218 215 212 210 210 209 209 211 211 207 213 215 216 219 233 240 246 259 264
219 214 205 201 197 199 200 204 210 215 219 221 222 216 197 201 211 215 213 212 217 221 218 217 215 211 208 207 206 206 210 214 214 216 218 218 217 218 231 239 243 250 255
226 218 210 206 205 204 205 209 212 214 219 224 227 215 201 203 213 214 213 215 219 221 217 213 211 208 207 205 204 207 212 217 215 215 218 219 216 223 230 238 244 248 254
237 222 211 212 210 209 210 210 211 216 222 227 231 224 223 218 220 222 221 221 219 216 209 206 209 208 205 204 204 207 213 218 218 216 218 217 218 227 234 240 246 250 255
248 237 223 215 210 217 216 210 211 214 220 223 223 216 216 220 224 227 228 223 213 208 204 203 209 211 207 203 201 202 211 217 215 209 212 218 222 227 231 238 243 249 254
254 245 235 222 214 213 215 214 213 215 216 219 220 221 221 223 227 229 226 219 213 210 206 207 212 215 211 207 206 207 212 215 208 208 209 215 223 229 233 240 245 250 254
260 250 239 227 219 218 219 218 214 214 216 219 221 222 221 222 228 229 220 214 211 213 213 211 213 215 217 216 212 212 224 230 226 211 204 212 225 230 235 242 247 250 251
264 253 245 234 224 217 216 218 217 215 217 219 220 219 219 221 225 225 218 213 214 216 215 213 215 214 217 219 221 224 231 236 237 231 217 216 224 232 233 241 244 247 251